Regional Weather Roundup
Issued by NWS

Home | Current Version | Previous Version | Graphics & Text | Print | Product List | Glossary On
Versions: 1 2 3 4 5 6 7 8 9 10 11 12 13 14 15 16 17 18 19 20 21 22 23 24 25 26 27 28 29 30 31 32 33 34 35 36 37 38 39 40 41 42 43 44 45 46 47 48 49 50
000
ASUS43 KIND 222259
RWRIN

WEATHER ROUNDUP FOR INDIANA
NATIONAL WEATHER SERVICE INDIANAPOLIS IN
600 PM EST WED FEB 22 2017

NOTE: "FAIR" INDICATES FEW OR NO CLOUDS BELOW 12,000 FEET WITH NO
SIGNIFICANT WEATHER AND/OR OBSTRUCTIONS TO VISIBILITY.

* - STATION DOES NOT REPORT WEATHER SUCH AS PRECIPITATION OR FOG.

+ - STATION NOT QUALITY CONTROLLED BY THE NATIONAL WEATHER SERVICE.
    USE DATA WITH CAUTION...ESPECIALLY DEWPOINT AND RELATIVE
    HUMIDITY OBSERVATIONS.

INZ001>003-010>013-019-020-230000-
NORTHWEST INDIANA

CITY           SKY/WX    TMP DP  RH WIND       PRES   REMARKS
GARY /AIRPORT/ CLEAR     66  54  63 S12G23    29.67F
KNOX *+        MOCLDY    63  36  36 S9        29.71S
LA PORTE +     PTCLDY    62  55  77 S5        29.71S
MICHIGAN CITY+ CLEAR     63  54  72 S9        29.69F
RENSSELAER +   CLEAR     63  55  77 S14       29.71F

$$

LMZ046-743>745-230000-
SOUTHERN LAKE MICHIGAN

STATION/POSITION TIME  TEMP    WIND        PRES    WAVE
                       AIR SEA DIR/SP/G            HT
                 (UTC) (F)     (DEG/KT/KT) (MB)    (FT)
BURNS HARBOR     2240   64     190/ 14/ 16 1005.4F
MICHIGAN CITY    2230   63     160/  9/ 10   N/A

$$

INZ004-005-014>016-021>024-230000-
NORTH CENTRAL INDIANA

CITY           SKY/WX    TMP DP  RH WIND       PRES   REMARKS
ELKHART        MOCLDY    59  54  82 S9        29.72F
GOSHEN         PTCLDY    60  51  72 S12       29.73F
PERU/GRISSOM   CLOUDY    63  57  82 SW10      29.74F
SOUTH BEND     CLOUDY    60  54  80 S9        29.72F
WARSAW +       MOCLDY    59  52  77 S5        29.74S

$$

INZ006>009-017-018-025>027-230000-
NORTHEAST INDIANA

CITY           SKY/WX    TMP DP  RH WIND       PRES   REMARKS
ANGOLA *+      CLOUDY    61  50  67 S7        29.73F
AUBURN +       CLOUDY    61  52  72 SW7       29.76S
FORT WAYNE     MOCLDY    61  53  75 S8        29.76S
KENDALLVILLE + CLOUDY    59  53  79 SW10G17   29.75S

$$

INZ028-029-035-036-043>045-051>053-230000-
WEST CENTRAL INDIANA

CITY           SKY/WX    TMP DP  RH WIND       PRES   REMARKS
LAFAYETTE      CLEAR     64  55  72 S7        29.73F
TERRE HAUTE    PTCLDY    67  54  63 S8        29.75F

$$

INZ030>032-037>040-046>048-054>057-064-065-230000-
CENTRAL INDIANA

CITY           SKY/WX    TMP DP  RH WIND       PRES   REMARKS
CP ATTERBURY + CLOUDY    64  55  72 SE5       29.78F HAZE
COLUMBUS       CLOUDY    63  59  88 SE3       29.79S
FRANKFORT +    MOCLDY    65  56  71 SW6       29.77S
GREENWOOD *+   CLOUDY    66  56  72 SW6       29.79R
INDIANAPOLIS   MOCLDY    65  55  70 SW9       29.77R
-EAGLE CREEK   CLOUDY    66  53  63 SW8       29.77R
KOKOMO +       MOCLDY    62  54  74 SW10      29.77R
MT COMFORT *+  CLOUDY    63  55  77 S7        29.79R
SHELBYVILLE    CLOUDY    65  55  70 S7        29.78S
ZIONSVILLE +   CLOUDY    64  54  69 S12       29.77S

$$

INZ033-034-041-042-049-050-058-059-230000-
EAST CENTRAL INDIANA

CITY           SKY/WX    TMP DP  RH WIND       PRES   REMARKS
MUNCIE         CLOUDY    64  55  72 S9        29.77S

$$

INZ060-061-067>069-081>083-085>088-230000-
SOUTHWEST INDIANA

CITY           SKY/WX    TMP DP  RH WIND       PRES   REMARKS
EVANSVILLE     CLEAR     67  55  65 SW8       29.79S
HUNTINGBURG *+ CLEAR     68  55  64 S7        29.79S

$$

INZ062-063-066-070>080-084-089>092-230000-
SOUTH CENTRAL AND SOUTHEAST INDIANA

CITY           SKY/WX    TMP DP  RH WIND       PRES   REMARKS
BLOOMINGTON    MOCLDY    68  54  60 SW10      29.78R
MADISON *+     PTCLDY    68  54  60 S8        29.81S
SEYMOUR +      PTCLDY    68  55  64 S8        29.78R

$$




USA.gov is the U.S. government's official web portal to all federal, state and local government web resources and services.